Meriden, CT

6:22 AM EDT on September 18, 2019 (GMT -0400)
Meriden Markham Municipal

Weather History for KMMK - August, 2019

Change the Weather History Date:

Sunday, August 25, 2019

  Actual Average (KOXC) Record (KOXC)
Temperature  
Mean Temperature 66 °F -  
Max Temperature 73 °F 75 °F 87 °F (1998)
Min Temperature 59 °F 57 °F 51 °F (2005)
Cooling Degree Days 1    
Growing Degree Days 16 (Base 50)    
Moisture  
Dew Point 53 °F    
Average Humidity 65    
Maximum Humidity 87    
Minimum Humidity 46    
Precipitation  
Precipitation 0.00 in - - ()
Sea Level Pressure  
Sea Level Pressure 30.27 in    
Wind  
Wind Speed 5 mph (NE)    
Max Wind Speed 14 mph    
Max Gust Speed 25 mph    
Visibility 10 miles    
Events      
Averages and records for this station are not official NWS values.
T = Trace of Precipitation, MM = Missing Value Source: NWS Daily Summary

Daily Weather History Graph

Daily Weather History Graph

Search for Another Location

Airport or City:

Astronomy

Aug. 25, 2019 Rise Set
Actual Time 6:10 AM EDT 7:36 PM EDT
Civil Twilight 5:41 AM EDT 8:04 PM EDT
Nautical Twilight 5:06 AM EDT 8:39 PM EDT
Astronomical Twilight 4:29 AM EDT 9:16 PM EDT
Moon 12:40 AM EDT (8/25) 3:56 PM EDT (8/25)
Length of Visible Light 14h 23m
Length of Day
13h 25m
Waning Crescent, 29% of the Moon is Illuminated
Aug 25
Waning Crescent
Aug 30
New
Sep 5
First Quarter
Sep 14
Full
Sep 21
Last Quarter

Hourly Weather History & Observations

Time (EDT) Temp. Dew Point Humidity Pressure Visibility Wind Dir Wind Speed Gust Speed Precip Events Conditions
12:53 AM 64.0 °F 54.0 °F 70% 30.29 in 10.0 mi Calm Calm - N/A   Overcast
1:53 AM 63.0 °F 53.1 °F 70% 30.28 in 10.0 mi NNE 5.8 mph - N/A   Mostly Cloudy
2:53 AM 61.0 °F 54.0 °F 78% 30.27 in 10.0 mi Calm Calm - N/A   Clear
3:53 AM 59.0 °F 55.0 °F 87% 30.28 in 10.0 mi Calm Calm - N/A   Overcast
4:53 AM 61.0 °F 54.0 °F 78% 30.28 in 10.0 mi North 5.8 mph - N/A   Overcast
5:53 AM 61.0 °F 54.0 °F 78% 30.28 in 10.0 mi NNE 5.8 mph - N/A   Overcast
6:53 AM 60.1 °F 55.0 °F 83% 30.29 in 10.0 mi NNE 5.8 mph - N/A   Clear
7:53 AM 64.0 °F 55.9 °F 75% 30.30 in 10.0 mi NNE 4.6 mph - N/A   Clear
8:53 AM 66.0 °F 55.9 °F 70% 30.30 in 10.0 mi NNE 9.2 mph - N/A   Clear
9:53 AM 69.1 °F 55.0 °F 61% 30.30 in 10.0 mi North 9.2 mph - N/A   Scattered Clouds
10:53 AM 69.1 °F 53.1 °F 57% 30.29 in 10.0 mi ENE 9.2 mph 25.3 mph N/A   Partly Cloudy
11:53 AM 73.0 °F 51.1 °F 46% 30.29 in 10.0 mi ENE 13.8 mph 19.6 mph N/A   Scattered Clouds
12:53 PM 73.0 °F 51.1 °F 46% 30.28 in 10.0 mi NNE 11.5 mph 20.7 mph N/A   Mostly Cloudy
1:53 PM 71.1 °F 50.0 °F 47% 30.27 in 10.0 mi NE 12.7 mph 17.3 mph N/A   Overcast
2:53 PM 73.0 °F 55.0 °F 53% 30.26 in 10.0 mi ENE 11.5 mph 16.1 mph N/A   Overcast
3:53 PM 73.9 °F 54.0 °F 50% 30.25 in 10.0 mi Variable 5.8 mph 17.3 mph N/A   Scattered Clouds
4:53 PM 72.0 °F 54.0 °F 53% 30.24 in 10.0 mi ENE 8.1 mph - N/A   Mostly Cloudy
5:53 PM 71.1 °F 54.0 °F 55% 30.23 in 10.0 mi ENE 5.8 mph - N/A   Mostly Cloudy
6:53 PM 70.0 °F 54.0 °F 57% 30.24 in 10.0 mi ENE 4.6 mph - N/A   Mostly Cloudy
7:53 PM 66.0 °F 54.0 °F 65% 30.25 in 10.0 mi Variable 4.6 mph - N/A   Partly Cloudy
8:53 PM 64.0 °F 53.1 °F 67% 30.27 in 10.0 mi NNE 6.9 mph - N/A   Clear
9:53 PM 61.0 °F 51.1 °F 70% 30.27 in 10.0 mi NNE 5.8 mph - N/A   Clear
10:53 PM 60.1 °F 51.1 °F 72% 30.27 in 10.0 mi Variable 3.5 mph - N/A   Clear
11:22 PM 59.0 °F 50.0 °F 72% 30.27 in 10.0 mi NNE 6.9 mph - N/A   Partly Cloudy
11:53 PM 59.0 °F 50.0 °F 72% 30.26 in 10.0 mi North 6.9 mph - N/A   Clear